User: anonymous   Login
Location: Brno
(49.2000°N, 16.6330°E)
Time: 06:25:49
(UTC+02:00)
Language:

BREEZE M DEB (TANK) - Orbit

View from above orbital plane
View from above orbital plane
View from above satellite
View from above satellite

Ground track
Ground track

The orbit data is extracted from the following two-line orbital elements,

1 28359U 04022B   15088.32567142  .00011228  00000-0  12078-2 0  9991
2 28359 049.5290 133.4424 4708934 261.0711 328.4442 06.14187000235185
Epoch (UTC): 29 March 2015 07:48:58
Eccentricity: 0.4708934
inclination: 49.5290°
perigee height: 286 km
apogee height: 12148 km
right ascension of ascending node: 133.4424°
argument of perigee: 261.0711°
revolutions per day: 6.14187000
mean anomaly at epoch: 328.4442°
orbit number at epoch: 23518

The dashed part of the orbit path shows where the satellite is in the earth's shadow,  

DLR